Piney Island, NC

12:05 PM EDT on May 24, 2017 (GMT -0400)
Piney Island

Weather History for KNBT - May, 2014

Change the Weather History Date:

Thursday, May 1, 2014

  Actual Average (KMRH) Record (KMRH)
Temperature  
Mean Temperature 76 °F -  
Max Temperature 82 °F 75 °F 86 °F (1990)
Min Temperature 70 °F 55 °F 40 °F (1980)
Cooling Degree Days 11    
Growing Degree Days 26 (Base 50)    
Moisture  
Dew Point 70 °F    
Average Humidity 87    
Maximum Humidity 100    
Minimum Humidity 60    
Precipitation  
Precipitation 0.00 in - - ()
Sea Level Pressure  
Sea Level Pressure 29.95 in    
Wind  
Wind Speed 15 mph (SSW)    
Max Wind Speed 24 mph    
Max Gust Speed 37 mph    
Visibility 8 miles    
Events Rain    
Averages and records for this station are not official NWS values.
T = Trace of Precipitation, MM = Missing Value Source: NWS Daily Summary

Daily Weather History Graph

Daily Weather History Graph

Search for Another Location

Airport or City:

Trip Planner

Search our weather history database for the weather conditions in past years. The results will help you decide how hot, cold, wet, or windy it might be!

Date:

Astronomy

May. 01, 2014 Rise Set
Actual Time 6:15 AM EDT 7:51 PM EDT
Civil Twilight 5:47 AM EDT 8:18 PM EDT
Nautical Twilight 5:15 AM EDT 8:51 PM EDT
Astronomical Twilight 4:41 AM EDT 9:25 PM EDT
Moon 8:02 AM EDT (5/1) 10:20 PM EDT (5/1)
Length of Visible Light 14h 30m
Length of Day
13h 36m
Waxing Crescent, 6% of the Moon is Illuminated
May 1
Waxing Crescent
May 6
First Quarter
May 14
Full
May 21
Last Quarter
May 28
New

Hourly Weather History & Observations

Time (EDT) Temp. Heat Index Dew Point Humidity Pressure Visibility Wind Dir Wind Speed Gust Speed Precip Events Conditions
12:27 AM 75.0 °F - 73.0 °F 94% 29.98 in 5.0 mi South 13.8 mph 24.2 mph N/A Rain Rain
12:56 AM 75.0 °F - 73.0 °F 94% 30.00 in 7.0 mi South 12.7 mph 26.5 mph N/A Rain Light Rain
1:21 AM 73.9 °F - 73.0 °F 97% 29.98 in 2.5 mi SW 23.0 mph 32.2 mph N/A Rain Heavy Rain
1:25 AM 71.1 °F - 71.1 °F 100% 30.00 in 1.0 mi WSW 24.2 mph 36.8 mph N/A Rain Heavy Rain
1:28 AM 70.0 °F - 70.0 °F 100% 30.00 in 0.8 mi WSW 13.8 mph 36.8 mph N/A Rain Heavy Rain
1:38 AM 70.0 °F - 70.0 °F 100% 29.99 in 2.5 mi SW 12.7 mph - N/A Rain Heavy Rain
1:40 AM 70.0 °F - 70.0 °F 100% 29.98 in 4.0 mi SSW 11.5 mph - N/A Rain Heavy Rain
1:56 AM 71.1 °F - 71.1 °F 100% 29.99 in 8.0 mi SW 8.1 mph - N/A Rain Light Rain
2:17 AM 70.0 °F - 69.1 °F 97% 29.98 in 10.0 mi SSW 15.0 mph 27.6 mph N/A   Mostly Cloudy
2:24 AM 70.0 °F - 69.1 °F 97% 29.97 in 10.0 mi SSW 13.8 mph 23.0 mph N/A   Scattered Clouds
2:56 AM 70.0 °F - 70.0 °F 100% 29.98 in 9.0 mi SSW 10.4 mph - N/A   Clear
3:56 AM 72.0 °F - 71.1 °F 97% 29.97 in 7.0 mi South 10.4 mph - N/A   Mostly Cloudy
4:08 AM 73.0 °F - 72.0 °F 96% 29.96 in 7.0 mi South 8.1 mph - N/A   Mostly Cloudy
4:30 AM 73.0 °F - 72.0 °F 96% 29.95 in 7.0 mi SSW 11.5 mph - N/A Rain Light Rain
4:38 AM 73.9 °F - 72.0 °F 93% 29.96 in 8.0 mi SSW 13.8 mph - N/A Rain Light Rain
4:56 AM 73.9 °F - 72.0 °F 93% 29.96 in 9.0 mi SSW 15.0 mph - N/A   Overcast
5:56 AM 72.0 °F - 71.1 °F 97% 29.97 in 9.0 mi SSW 13.8 mph - N/A   Overcast
6:14 AM 73.0 °F - 70.0 °F 90% 29.95 in 7.0 mi SW 15.0 mph - N/A   Scattered Clouds
6:44 AM 73.0 °F - 71.1 °F 93% 29.96 in 6.0 mi SSW 12.7 mph - N/A   Partly Cloudy
6:56 AM 73.0 °F - 71.1 °F 93% 29.97 in 6.0 mi SSW 16.1 mph 23.0 mph N/A   Scattered Clouds
7:03 AM 73.0 °F - 71.1 °F 93% 29.96 in 5.0 mi SSW 16.1 mph 23.0 mph N/A   Mostly Cloudy
7:11 AM 73.0 °F - 72.0 °F 96% 29.96 in 5.0 mi SSW 15.0 mph - N/A   Partly Cloudy
7:56 AM 75.0 °F - 72.0 °F 90% 29.97 in 7.0 mi SSW 13.8 mph - N/A   Partly Cloudy
8:13 AM 75.0 °F - 72.0 °F 90% 29.95 in 7.0 mi SSW 16.1 mph - N/A   Partly Cloudy
8:56 AM 77.0 °F - 72.0 °F 84% 29.97 in 9.0 mi SSW 13.8 mph 21.9 mph N/A   Partly Cloudy
9:56 AM 78.1 °F - 69.1 °F 74% 29.96 in 10.0 mi SW 16.1 mph 23.0 mph N/A   Scattered Clouds
10:56 AM 82.0 °F 84.5 °F 66.9 °F 60% 29.96 in 10.0 mi SSW 12.7 mph - N/A   Scattered Clouds
11:56 AM 81.0 °F 84.1 °F 69.1 °F 67% 29.96 in 10.0 mi South 15.0 mph - N/A   Mostly Cloudy
12:56 PM 81.0 °F 84.1 °F 69.1 °F 67% 29.95 in 10.0 mi SSW 15.0 mph 20.7 mph N/A   Mostly Cloudy
1:56 PM 78.1 °F - 68.0 °F 71% 29.95 in 10.0 mi South 15.0 mph 26.5 mph N/A   Mostly Cloudy
2:56 PM 79.0 °F - 68.0 °F 69% 29.92 in 10.0 mi SSW 19.6 mph 27.6 mph N/A   Clear
3:56 PM 82.0 °F 84.5 °F 66.9 °F 60% 29.89 in 10.0 mi SSW 17.3 mph 26.5 mph N/A   Clear
4:56 PM 80.1 °F 82.3 °F 66.9 °F 64% 29.88 in 10.0 mi South 17.3 mph 24.2 mph N/A   Clear
5:56 PM 77.0 °F - 66.9 °F 71% 29.89 in 10.0 mi SSW 17.3 mph - N/A   Mostly Cloudy
6:56 PM 75.0 °F - 68.0 °F 79% 29.89 in 10.0 mi SSW 18.4 mph 27.6 mph N/A   Clear
7:56 PM 73.0 °F - 66.9 °F 81% 29.88 in 10.0 mi South 11.5 mph - N/A Rain Light Rain
8:56 PM 73.0 °F - 66.9 °F 81% 29.87 in 10.0 mi SSW 12.7 mph - N/A   Clear
9:56 PM 73.0 °F - 66.0 °F 79% 29.89 in 10.0 mi SSW 15.0 mph 23.0 mph N/A   Mostly Cloudy
10:56 PM 72.0 °F - 68.0 °F 87% 29.87 in 10.0 mi South 13.8 mph 23.0 mph N/A   Mostly Cloudy
11:56 PM 73.0 °F - 68.0 °F 84% 29.87 in 10.0 mi SSW 24.2 mph 33.4 mph N/A   Partly Cloudy